[[{"header":{"parameterUnit":"m.s-1","parameterCategory":1,"la1":30.2991,"la2":30.254,"lo1":-89.0895,"lo2":-89.0444,"dy":0.0017,"dx":0.0017,"nx":28,"ny":28,"refTime":"2025-04-03T21:00:00:Z","depth":0,"parameterNumber":2,"parameterNumberName":"U-component_of_WINDS"},"data":[0,0,0,0,0,0,0,0,0,0,0,0,0,0,0,0,0,0,0,0,0,0,0,0,0,0,0,0,0,0,0,0,0,0,0,0,0,0,0,0,0,0,0,0,0,0,0,0,0,0,0,0,0,0,0,0,0,0,-6.504,-6.5041,0,-6.5158,-6.5159,-6.5161,-6.5122,-6.5119,-6.5116,-6.5114,-6.5233,-6.5238,-6.5244,0,0,0,0,0,0,0,0,0,0,0,0,0,-6.4778,-6.4783,-6.504,-6.5041,-6.5043,-6.5158,-6.516,-6.5161,-6.5122,-6.5119,-6.5116,-6.5113,-6.5231,-6.5238,-6.5244,0,0,0,0,0,0,0,0,0,0,0,0,0,-6.4894,-6.4785,-6.5039,-6.5037,-6.5038,-6.5158,-6.516,-6.5162,-6.5123,-6.5119,-6.5115,-6.5111,-6.5229,-6.5237,-6.5245,-6.5373,0,0,-6.5271,-6.5274,0,0,0,0,0,0,0,0,-6.4887,-6.4903,-6.5036,-6.5037,-6.5039,-6.5121,-6.5111,-6.5233,-6.5124,-6.5091,-6.5114,-6.511,-6.5199,-6.5209,-6.524,-6.5379,-6.5384,-6.5271,-6.5277,-6.528,-6.5282,0,0,0,0,0,0,0,-6.4879,-6.4898,-6.5086,-6.5038,-6.504,-6.503,-6.5042,-6.5134,-6.5165,-6.5093,-6.5091,-6.5105,-6.5199,-6.5232,-6.5242,-6.5386,-6.5271,-6.5279,-6.5284,-6.5287,-6.5636,-6.564,0,0,0,0,0,0,-6.4871,-6.4891,-6.5083,-6.509,-6.4952,-6.5037,-6.5051,-6.5099,-6.5164,-6.517,-6.5108,-6.5103,-6.522,-6.5233,-6.5246,-6.5399,-6.528,-6.5288,-6.5293,-6.5632,-6.5637,-6.5641,0,0,0,0,0,0,-6.4865,-6.4888,-6.5078,-6.499,-6.5014,-6.5046,-6.51,-6.5103,-6.5136,-6.5175,-6.518,-6.5137,-6.5217,-6.5235,-6.5342,-6.5403,-6.5292,-6.5299,-6.5626,-6.5633,-6.5639,-6.5707,0,0,0,0,0,0,-6.4858,-6.4886,-6.4935,-6.4992,-6.5018,-6.5172,-6.5104,-6.5108,-6.5151,-6.5145,-6.5203,-6.5209,-6.5215,-6.533,-6.535,-6.5412,-6.5306,-6.5621,-6.5629,-6.5637,-6.5699,-6.5715,-6.5728,0,0,0,0,0,-6.4849,-6.495,-6.4938,-6.4961,-6.5081,-6.5176,-6.5191,-6.5197,-6.5156,-6.5205,-6.5231,-6.5207,-6.5394,-6.5341,-6.5364,-6.5429,-6.5617,-6.5627,-6.5636,-6.5693,-6.5712,-6.5728,0,0,0,0,0,0,-6.4898,-6.4957,-6.4945,-6.5067,-6.5117,-6.5169,-6.5231,-6.5217,-6.5279,-6.527,-6.5275,-6.5289,-6.5399,-6.5425,-6.5366,-6.5557,-6.5499,-6.5514,-6.5535,-6.5553,-6.5567,-6.5557,-6.5313,0,0,0,0,0,-6.4924,-6.4997,-6.5044,-6.5147,-6.5173,-6.5198,-6.524,-6.5241,-6.5292,-6.5312,-6.5345,-6.5396,-6.5466,-6.5511,-6.5578,-6.5705,-6.5716,-6.5761,-6.5775,-6.5787,-6.5798,-6.5866,-6.5886,-6.5673,-6.5673,-6.5673,0,0,-6.4976,-6.5018,-6.5063,-6.5158,-6.5197,-6.5271,-6.5216,-6.5297,-6.5352,-6.5324,-6.5427,-6.5454,-6.5511,-6.5628,-6.5681,-6.5653,-6.5861,-6.5799,-6.5808,-6.5813,-6.5878,-6.5898,-6.5916,-6.5679,-6.5678,-6.5677,0,0,-6.511,-6.5149,-6.5239,-6.5279,-6.5339,-6.5356,-6.5378,-6.5433,-6.5449,-6.5553,-6.5534,-6.56,-6.5721,-6.5761,-6.5798,-6.5949,-6.5929,-6.5971,-6.6045,-6.6111,-6.6128,-6.6143,-6.6194,-6.6213,-6.5983,-6.5984,-6.5984,0,-6.5167,-6.5279,-6.5287,-6.537,-6.5412,-6.5392,-6.5483,-6.5522,-6.56,-6.5629,-6.5597,-6.5749,-6.5786,-6.5911,-6.5948,-6.598,-6.6004,-6.5963,-6.6125,-6.614,-6.6154,-6.6203,-6.6223,-6.5988,-6.5988,-6.5987,-6.5987,0,-6.5346,-6.5424,-6.5489,-6.5566,-6.5616,-6.5703,-6.5723,-6.5772,-6.577,-6.579,-6.5896,-6.594,-6.6015,-6.6046,-6.6043,-6.6172,-6.6152,-6.6124,-6.6065,-6.6179,-6.6225,-6.6244,-6.5994,-6.5993,-6.5992,-6.599,0,0,-6.551,-6.5592,-6.5615,-6.565,-6.5715,-6.5776,-6.5862,-6.5936,-6.5977,-6.6034,-6.6104,-6.6208,-6.6182,-6.6224,-6.6227,-6.6285,-6.64,-6.6249,-6.625,-6.6273,-6.6542,-6.656,-6.6582,-6.6389,-6.6393,-6.6396,-6.6536,0,-6.5646,-6.5797,-6.5807,-6.5943,-6.6015,-6.5999,-6.6074,-6.6122,-6.6144,-6.6207,-6.6231,-6.6304,-6.6265,-6.629,-6.6348,-6.6374,-6.6453,-6.6364,-6.6453,-6.6456,-6.6435,-6.6607,-6.6627,-6.6757,-6.6554,-6.6558,-6.656,0,-6.5824,-6.5886,-6.603,-6.6086,-6.6116,-6.6183,-6.6252,-6.6314,-6.6368,-6.638,-6.6428,-6.6423,-6.6511,-6.6453,-6.6573,-6.6512,-6.6549,-6.6568,-6.6573,-6.6579,-6.6512,-6.6614,-6.6799,-6.6817,-6.6589,-6.6587,-6.6584,0,-6.5926,-6.6046,-6.6147,-6.6177,-6.6246,-6.6293,-6.6324,-6.6375,-6.6419,-6.648,-6.6508,-6.6578,-6.6616,-6.667,-6.6684,-6.6641,-6.6804,-6.6747,-6.6814,-6.6814,-6.6845,-6.6842,-6.7035,-6.6876,-6.6876,-6.6875,-6.6875,0,-6.6075,-6.6163,-6.6193,-6.6255,-6.6353,-6.6365,-6.6461,-6.6489,-6.6535,-6.6601,-6.6593,-6.6655,-6.6672,-6.6737,-6.6749,-6.6846,-6.6864,-6.6874,-6.6876,-6.6873,-6.6871,-6.6895,-6.6885,-6.688,-6.6879,-6.6878,-6.6877,0,-6.6204,-6.6228,-6.6336,-6.6394,-6.641,-6.6479,-6.6527,-6.6587,-6.6608,-6.6692,-6.6713,-6.6746,-6.6823,-6.6844,-6.6936,-6.6944,-6.7057,-6.7052,-6.7038,-6.7037,-6.7101,-6.7094,-6.7313,-6.7342,-6.7167,-6.7168,-6.717,0,-6.6295,-6.6362,-6.6427,-6.6471,-6.6504,-6.6576,-6.6621,-6.6637,-6.6684,-6.6752,-6.6803,-6.6879,-6.694,-6.7063,-6.7095,-6.7166,-6.716,-6.7232,-6.717,-6.7165,-6.7157,-6.7152,-6.7157,-6.7242,-6.7244,-6.7246,-6.7247,0,-6.6454,-6.6464,-6.6529,-6.66,-6.6655,-6.6711,-6.6765,-6.6802,-6.6825,-6.6879,-6.6957,-6.7005,-6.71,-6.7174,-6.7246,-6.7277,-6.7265,-6.7267,-6.7286,-6.7282,-6.727,-6.7274,-6.7066,-6.7261,-6.7259,-6.7258,-6.7258,-6.7257,-6.6565,-6.6624,-6.6678,-6.6752,-6.6795,-6.6846,-6.6904,-6.6934,-6.7,-6.7078,-6.7084,-6.7169,-6.7223,-6.7317,-6.7353,-6.7419,-6.7397,-6.7425,-6.7431,-6.7437,-6.7441,-6.7263,-6.7433,-6.7432,-6.7432,-6.7432,-6.7431,0,-6.6721,-6.6756,-6.6824,-6.69,-6.6959,-6.6946,-6.7005,-6.7054,-6.7129,-6.7181,-6.7242,-6.7332,-6.7406,-6.7445,-6.7517,-6.7563,-6.7559,-6.7581,-6.7576,-6.7583,-6.7458,-6.7433,-6.7583,-6.7583,-6.7583,-6.7583,-6.7582,-6.7582,-6.6809,-6.6907,-6.6923,-6.7042,-6.7076,-6.716,-6.7195,-6.7242,-6.7283,-6.7384,-6.7445,-6.7471,-6.7518,-6.7594,-6.766,-6.767,-6.7696,-6.772,-6.7726,-6.7608,-6.7592,-6.7577,-6.7553,-6.7726,-6.7726,-6.7845,-6.7846,-6.7847]},{"header":{"parameterUnit":"m.s-1","parameterCategory":1,"la1":30.2991,"la2":30.254,"lo1":-89.0895,"lo2":-89.0444,"dy":0.0017,"dx":0.0017,"nx":28,"ny":28,"refTime":"2025-04-03T21:00:00:Z","depth":0,"parameterNumber":3,"parameterNumberName":"V-component_of_WINDS"},"data":[0,0,0,0,0,0,0,0,0,0,0,0,0,0,0,0,0,0,0,0,0,0,0,0,0,0,0,0,0,0,0,0,0,0,0,0,0,0,0,0,0,0,0,0,0,0,0,0,0,0,0,0,0,0,0,0,0,0,3.1867,3.1868,0,3.1935,3.1936,3.1936,3.1953,3.1953,3.1953,3.1952,3.2018,3.202,3.2022,0,0,0,0,0,0,0,0,0,0,0,0,0,3.175,3.1752,3.1867,3.1868,3.1869,3.1935,3.1936,3.1937,3.1954,3.1953,3.1953,3.1952,3.2017,3.202,3.2022,0,0,0,0,0,0,0,0,0,0,0,0,0,3.1808,3.1753,3.1867,3.1885,3.1887,3.1935,3.1936,3.1937,3.1954,3.1953,3.1952,3.1952,3.2016,3.2019,3.2023,3.2055,0,0,3.2032,3.2034,0,0,0,0,0,0,0,0,3.1804,3.1812,3.1882,3.1884,3.1887,3.1935,3.1919,3.1976,3.1954,3.1928,3.1952,3.1951,3.1991,3.1996,3.201,3.2058,3.2061,3.2033,3.2035,3.2036,3.2037,0,0,0,0,0,0,0,3.18,3.1809,3.1894,3.1883,3.1886,3.189,3.1897,3.193,3.1962,3.1931,3.1932,3.194,3.1992,3.2007,3.2012,3.2062,3.2033,3.2036,3.2038,3.2039,3.2143,3.2144,0,0,0,0,0,0,3.1794,3.1806,3.1892,3.1896,3.1843,3.1892,3.19,3.192,3.1962,3.1968,3.194,3.1941,3.2002,3.2008,3.2014,3.2057,3.2036,3.2039,3.2041,3.2143,3.2144,3.2145,0,0,0,0,0,0,3.1791,3.1801,3.1889,3.1851,3.1863,3.1895,3.1917,3.1922,3.1937,3.1969,3.1975,3.195,3.2001,3.2009,3.2046,3.2059,3.2041,3.2043,3.2142,3.2143,3.2144,3.2141,0,0,0,0,0,0,3.1788,3.18,3.1813,3.1851,3.1865,3.192,3.1918,3.1924,3.1943,3.1944,3.198,3.1985,3.2001,3.2041,3.2049,3.2063,3.2046,3.2141,3.2142,3.2144,3.214,3.2142,3.2144,0,0,0,0,0,3.1783,3.1808,3.1813,3.1824,3.1882,3.1921,3.1928,3.1948,3.1944,3.1957,3.1979,3.1984,3.2057,3.2044,3.2054,3.2069,3.214,3.2142,3.2144,3.214,3.2142,3.2144,0,0,0,0,0,0,3.1768,3.1813,3.182,3.1858,3.1886,3.1923,3.194,3.1949,3.1977,3.1977,3.1999,3.2007,3.2042,3.2059,3.2045,3.2104,3.2098,3.2102,3.2092,3.2094,3.2096,3.2091,3.2049,0,0,0,0,0,3.1769,3.1798,3.1836,3.1865,3.1879,3.1908,3.1925,3.1938,3.1967,3.1979,3.2003,3.203,3.2059,3.2078,3.2106,3.2143,3.2152,3.2159,3.216,3.2162,3.2165,3.2188,3.2192,3.2151,3.2151,3.2151,0,0,3.1771,3.18,3.1816,3.1863,3.1886,3.1916,3.1917,3.1947,3.1969,3.1983,3.202,3.2038,3.207,3.2108,3.2125,3.2123,3.2178,3.2164,3.2165,3.2167,3.219,3.2194,3.2197,3.2152,3.2152,3.2152,0,0,3.1791,3.1815,3.1844,3.1868,3.1903,3.1923,3.193,3.1967,3.1981,3.2019,3.203,3.2056,3.2105,3.2129,3.2147,3.2179,3.2185,3.2187,3.2197,3.2219,3.2222,3.2225,3.2238,3.2242,3.219,3.219,3.219,0,3.1789,3.1834,3.1857,3.1888,3.1909,3.1925,3.1954,3.1976,3.2018,3.2032,3.203,3.2094,3.2117,3.2161,3.2169,3.2183,3.2192,3.2183,3.222,3.2223,3.2227,3.2239,3.2244,3.219,3.219,3.219,3.219,0,3.1831,3.1862,3.1881,3.1925,3.1948,3.1977,3.2005,3.2025,3.2037,3.2056,3.2096,3.2124,3.2159,3.2171,3.2181,3.2217,3.2215,3.2216,3.221,3.223,3.2242,3.2247,3.219,3.219,3.219,3.219,0,0,3.184,3.1898,3.1905,3.1926,3.1968,3.1993,3.2024,3.2061,3.2079,3.2108,3.2136,3.2179,3.2181,3.2202,3.2215,3.2235,3.2261,3.2234,3.2235,3.2239,3.2304,3.2304,3.2309,3.2266,3.2267,3.2267,3.2302,0,3.1865,3.1923,3.1946,3.1993,3.2023,3.2041,3.2068,3.2097,3.2117,3.2145,3.2167,3.2198,3.2197,3.221,3.2231,3.2253,3.2274,3.2251,3.2291,3.2292,3.2283,3.2315,3.2314,3.2345,3.2307,3.2307,3.2308,0,3.1902,3.1935,3.1986,3.2027,3.2041,3.2065,3.2103,3.2129,3.2163,3.2176,3.2201,3.2215,3.2248,3.2241,3.2288,3.2272,3.229,3.2304,3.2306,3.231,3.2301,3.2321,3.2355,3.236,3.2315,3.2315,3.2314,0,3.1906,3.1962,3.2001,3.2018,3.2067,3.2084,3.2105,3.2139,3.216,3.2193,3.2207,3.2242,3.2261,3.2288,3.2311,3.2303,3.2357,3.235,3.2369,3.2368,3.2379,3.2378,3.2417,3.2389,3.2389,3.2389,3.2389,0,3.1932,3.1962,3.2004,3.2027,3.2063,3.2089,3.2123,3.2145,3.2175,3.2203,3.222,3.2246,3.2274,3.2304,3.2321,3.2359,3.2367,3.2379,3.2383,3.2378,3.2376,3.239,3.2388,3.239,3.239,3.239,3.239,0,3.1941,3.197,3.2013,3.2058,3.2069,3.2094,3.2131,3.2155,3.2177,3.2213,3.2222,3.2256,3.2292,3.2318,3.2363,3.2376,3.2417,3.242,3.2406,3.2408,3.2425,3.2424,3.2475,3.2483,3.2449,3.2449,3.245,0,3.1956,3.1981,3.2029,3.205,3.2072,3.2105,3.2128,3.2156,3.2179,3.2221,3.224,3.2278,3.231,3.2367,3.2395,3.2431,3.2436,3.2452,3.2441,3.2436,3.2438,3.2436,3.244,3.2453,3.2453,3.2453,3.2453,0,3.198,3.1994,3.2028,3.2067,3.2096,3.2127,3.2159,3.2175,3.2208,3.2234,3.2273,3.2298,3.2346,3.2384,3.2423,3.2444,3.2455,3.2457,3.2463,3.2458,3.2449,3.2455,3.2411,3.2455,3.2455,3.2455,3.2455,3.2455,3.1993,3.2017,3.2056,3.2094,3.2121,3.2152,3.2177,3.2204,3.2237,3.228,3.2294,3.2334,3.237,3.2424,3.2446,3.2477,3.2476,3.2485,3.2487,3.2489,3.249,3.2444,3.2484,3.2484,3.2484,3.2484,3.2484,0,3.202,3.2046,3.2081,3.2127,3.2157,3.2167,3.2203,3.2227,3.2263,3.2296,3.2329,3.2374,3.2411,3.2444,3.2483,3.2502,3.2508,3.2511,3.251,3.2515,3.2488,3.2479,3.2506,3.2506,3.2506,3.2506,3.2506,3.2506,3.2037,3.2078,3.2097,3.2153,3.2179,3.2221,3.2241,3.227,3.2296,3.2347,3.2379,3.2401,3.2434,3.2476,3.2511,3.252,3.2534,3.2536,3.2546,3.2519,3.2517,3.2514,3.2507,3.2539,3.2539,3.2571,3.2571,3.2571]}]]